DateTimeUTC,F1_A11,F1_S11,BsB_S11,BsG_S11,BsR_S11,BbsB_S11,BbsG_S11,BbsR_S11,BaB_A11,BaG_A11,BaR_A11,Tu_S11,T_S11,Uu_S11,U_S11,P_S11,T1_A11
2021-08-29T04:00:00Z,00000200,20000000,,,,,,,0000.15,0000.21,0000.04,18.4,25.4,04.6,03.0,0667.3,31.0
2021-08-29T04:01:00Z,00000200,20000000,,,,,,,-000.04,-000.13,0000.18,18.4,25.4,04.4,02.9,0667.3,31.0
2021-08-29T04:02:00Z,00000200,20000000,,,,,,,-000.42,-000.36,-000.50,18.4,25.4,04.3,02.8,0667.3,31.0
2021-08-29T04:03:00Z,00000200,60000000,,,,,,,-000.14,-000.37,-000.18,18.5,25.4,04.3,02.8,0667.3,31.0
2021-08-29T04:04:00Z,00000200,40000000,0000.33,-000.14,0000.30,0000.23,0000.12,0000.53,-000.12,0000.52,0000.19,18.8,25.4,04.1,02.8,0668.2,31.0
2021-08-29T04:05:00Z,00000200,00000000,-000.24,0000.09,0000.39,0000.03,0000.15,0000.47,-000.17,-000.35,-000.07,18.9,25.3,04.1,02.8,0668.3,31.0
2021-08-29T04:06:00Z,00000200,00000000,-000.05,-000.05,0000.50,-000.03,-000.01,0000.45,0000.17,-000.15,-000.31,18.9,25.3,04.2,02.8,0668.3,31.0
2021-08-29T04:07:00Z,00000200,00000000,0000.12,0000.36,0000.17,0000.10,0000.10,0000.31,-000.58,-000.65,-000.18,18.9,25.3,04.0,02.7,0668.3,31.0
2021-08-29T04:08:00Z,00000200,00000000,-000.40,0000.34,0000.27,0000.47,0000.06,0000.52,0000.69,0000.61,0000.37,18.8,25.3,04.1,02.8,0668.3,31.0
2021-08-29T04:09:00Z,00000200,00000000,-000.20,0000.00,0000.15,0000.34,-000.07,0000.14,-000.33,0000.08,-000.20,18.8,25.3,04.1,02.8,0668.3,31.0
2021-08-29T04:10:00Z,00000200,00000000,-000.26,0000.31,0000.33,0000.60,-000.00,0000.46,-000.15,-000.24,0000.06,18.8,25.3,04.1,02.8,0668.2,31.0
2021-08-29T04:11:00Z,00000200,00000000,-000.20,-000.13,0000.13,0000.71,0000.21,0000.42,0000.13,0000.27,0000.17,18.8,25.2,04.2,02.8,0668.2,31.0
2021-08-29T04:12:00Z,00000200,00000000,-000.13,0000.20,0000.16,0000.59,-000.07,0000.37,-000.05,-000.30,-000.17,18.8,25.2,04.2,02.8,0668.2,31.0
2021-08-29T04:13:00Z,00000200,00000000,0000.33,0000.25,0000.01,0000.23,-000.28,0000.34,0000.19,0000.22,-000.06,18.8,25.2,04.2,02.8,0668.2,31.0
2021-08-29T04:14:00Z,00000200,00000000,0000.06,0000.05,0000.23,0000.69,-000.02,0000.36,0000.13,0000.31,0000.34,18.7,25.2,04.1,02.8,0668.2,31.0
2021-08-29T04:15:00Z,00000200,00000000,-000.08,-000.09,0000.17,-000.30,0000.03,0000.35,0000.30,0000.47,0000.22,18.8,25.2,04.2,02.9,0668.2,31.0
2021-08-29T04:16:00Z,00000200,00000000,-000.04,0000.18,0000.45,0000.00,0000.11,0000.37,-000.16,-000.18,-000.32,18.8,25.2,04.2,02.8,0668.2,31.0
2021-08-29T04:17:00Z,00000200,00000000,0000.57,0000.37,0000.17,0000.71,0000.31,0000.15,-000.40,-000.53,-000.02,18.9,25.3,04.2,02.9,0668.2,31.0
2021-08-29T04:18:00Z,00000200,00000000,-000.03,-000.00,0000.19,0000.27,-000.17,0000.62,0000.49,0000.28,0000.23,18.9,25.3,04.2,02.8,0668.2,31.0
2021-08-29T04:19:00Z,00000200,00000000,0000.16,0000.11,0000.22,0000.32,0000.09,0000.26,-000.08,0000.27,0000.09,18.9,25.3,04.3,02.9,0668.2,31.0
2021-08-29T04:20:00Z,00000200,00000000,0001.00,0000.07,0000.45,0000.29,-000.04,0000.30,0000.41,-000.12,-000.05,18.9,25.3,04.3,02.9,0668.1,31.0
2021-08-29T04:21:00Z,00000200,00000000,-000.08,0000.32,0000.48,-000.06,0000.12,0000.41,-000.25,-000.03,-000.24,18.9,25.3,04.2,02.8,0668.2,31.0
2021-08-29T04:22:00Z,00000200,00000000,-000.04,0000.13,0000.37,0000.16,0000.05,0000.53,-000.10,-000.03,0000.34,18.9,25.3,04.2,02.9,0668.1,31.0
2021-08-29T04:23:00Z,00000200,00000000,0000.50,0000.15,-000.13,0000.45,0000.30,0000.35,0000.10,-000.35,-000.39,18.8,25.2,04.3,02.9,0668.1,31.0
2021-08-29T04:24:00Z,00000200,00000000,0000.54,0000.21,0000.10,0000.49,-000.05,0000.20,0000.07,0000.33,0000.41,18.8,25.2,04.2,02.8,0668.1,31.0
2021-08-29T04:25:00Z,00000200,00000000,-000.40,0000.31,0000.32,0000.02,0000.27,0000.45,0000.06,-000.03,-000.08,18.8,25.2,04.3,02.9,0668.1,31.0
2021-08-29T04:26:00Z,00000200,00000000,-000.71,0000.50,0000.22,0000.09,0000.03,0000.28,0000.18,0000.43,-000.09,18.8,25.2,04.2,02.9,0668.1,31.0
2021-08-29T04:27:00Z,00000200,00000000,-000.02,0000.17,0000.30,0000.27,0000.36,0000.70,-000.10,-000.29,0000.15,18.8,25.2,04.2,02.8,0668.1,31.0
2021-08-29T04:28:00Z,00000200,00000000,0000.47,-000.21,0000.14,0000.11,0000.06,0000.23,-000.19,-000.01,-000.01,18.7,25.2,04.2,02.9,0668.1,31.0
2021-08-29T04:29:00Z,00000200,00000000,0000.51,0000.23,0000.14,0000.51,-000.33,0000.38,0000.20,0000.09,0000.18,18.7,25.2,04.3,02.9,0668.1,31.0
2021-08-29T04:30:00Z,00000200,00000000,0000.90,0000.18,0000.06,0000.17,-000.24,0000.40,-000.03,0000.28,-000.02,18.7,25.2,04.3,02.9,0668.1,31.0
2021-08-29T04:31:00Z,00000200,00000000,0000.46,0000.81,0000.35,0000.38,0000.16,0000.24,0000.37,-000.10,0000.29,18.8,25.2,04.2,02.8,0668.1,31.0
2021-08-29T04:32:00Z,00000200,00000000,0000.47,0000.50,0000.50,0000.46,-000.04,0000.47,0000.19,0000.05,-000.01,18.8,25.2,04.3,02.9,0668.1,31.0
2021-08-29T04:33:00Z,00000200,00000000,0000.67,0000.40,0000.44,0000.59,-000.22,0000.47,0000.22,0000.16,0000.29,18.8,25.2,04.3,02.9,0668.1,31.0
2021-08-29T04:34:00Z,00000200,00000000,0000.60,0000.25,0000.17,0000.24,0000.26,0000.03,-000.01,0000.05,-000.08,18.8,25.2,04.3,02.9,0668.1,31.0
2021-08-29T04:35:00Z,00000200,00000000,-000.48,0000.36,0000.39,0000.17,-000.04,0000.50,-000.42,-000.17,-000.52,18.8,25.2,04.2,02.8,0668.1,31.0
2021-08-29T04:36:00Z,00000200,00000000,0000.59,0000.25,0000.47,0000.02,0000.13,0000.61,0000.08,0000.00,0000.40,18.8,25.2,04.2,02.8,0668.1,31.0
2021-08-29T04:37:00Z,00000200,00000000,0000.25,0000.43,0000.73,0000.48,-000.09,0000.46,0000.47,0000.41,-000.23,18.8,25.2,04.1,02.8,0668.2,31.0
2021-08-29T04:38:00Z,00000200,00000000,0000.32,0000.31,0000.13,0000.38,0000.13,0000.16,-000.54,-000.67,-000.26,18.7,25.2,04.1,02.8,0668.2,31.0
2021-08-29T04:39:00Z,00000200,00000000,0000.34,0000.13,0000.35,-000.21,0000.15,0000.23,0000.20,0000.32,-000.23,18.7,25.2,04.2,02.8,0668.2,31.0
2021-08-29T04:40:00Z,00000200,00000000,0000.14,0000.23,0000.14,0000.63,-000.09,0000.02,-000.46,-000.25,0000.56,18.7,25.1,04.3,02.9,0668.2,31.0
2021-08-29T04:41:00Z,00000200,00000000,-000.30,0000.26,0000.24,0000.03,0000.16,0000.33,0000.18,-000.02,0000.04,18.7,25.1,04.1,02.8,0668.2,31.0
2021-08-29T04:42:00Z,00000200,00000000,0000.89,-000.04,0000.14,-000.15,-000.06,0000.26,0000.41,0000.37,-000.19,18.7,25.1,04.1,02.7,0668.2,31.0
2021-08-29T04:43:00Z,00000200,00000000,0000.13,0000.32,0000.31,0000.56,0000.09,0000.11,-000.45,-000.09,0000.34,18.6,25.1,04.0,02.7,0668.2,31.0
2021-08-29T04:44:00Z,00000200,00000000,0000.53,0000.08,0000.39,0000.15,0000.06,0000.05,0000.14,0000.08,-000.41,18.6,25.1,04.0,02.7,0668.2,31.0
2021-08-29T04:45:00Z,00000200,00000000,0001.04,0000.23,0000.26,0000.09,0000.23,0000.36,0000.31,0000.11,0000.33,18.6,25.1,04.1,02.8,0668.2,31.0
2021-08-29T04:46:00Z,00000200,00000000,0000.78,0000.54,0000.71,0000.43,0000.26,0000.44,-000.06,-000.07,0000.32,18.6,25.1,04.1,02.8,0668.2,31.0
2021-08-29T04:47:00Z,00000200,00000000,0001.61,0000.56,0000.85,0000.04,0000.10,0000.65,0000.25,0000.39,-000.15,18.6,25.1,04.2,02.8,0668.2,31.0
2021-08-29T04:48:00Z,00000200,00000000,0002.32,0000.89,0000.82,0000.26,0000.16,0000.71,0000.17,0000.01,0000.06,18.6,25.1,04.2,02.8,0668.2,31.0
2021-08-29T04:49:00Z,00000200,00000000,0001.57,0000.78,0000.23,0000.38,0000.17,-000.02,0000.17,0000.23,0000.18,18.6,25.1,04.2,02.8,0668.2,31.0
2021-08-29T04:50:00Z,00000200,00000000,0001.29,0001.07,0000.67,-000.22,0000.37,0000.62,0000.17,0000.13,0000.24,18.6,25.1,04.2,02.9,0668.2,31.0
2021-08-29T04:51:00Z,00000200,00000000,0000.79,0000.95,0000.88,0000.07,0000.36,0000.58,0000.22,0000.38,0000.35,18.5,25.0,04.2,02.8,0668.2,31.0
2021-08-29T04:52:00Z,00000200,00000000,0000.69,0000.53,0000.65,0000.44,-000.00,0000.38,0000.17,0000.04,0000.09,18.5,25.0,04.2,02.8,0668.2,31.0
2021-08-29T04:53:00Z,00000200,00000000,0001.30,0000.69,0000.60,0000.70,0000.05,0000.23,0000.31,0000.07,0000.03,18.5,25.0,04.2,02.8,0668.1,31.0
2021-08-29T04:54:00Z,00000200,00000000,0001.12,0001.37,0000.47,0000.66,0000.31,0000.16,0000.10,0000.64,0000.19,18.5,25.0,04.3,02.9,0668.1,31.0
2021-08-29T04:55:00Z,00000200,00000000,0001.35,0000.98,0000.52,0000.75,0000.11,0000.27,0000.16,-000.41,0000.31,18.5,25.0,04.1,02.8,0668.1,31.0
2021-08-29T04:56:00Z,00000200,00000000,0001.40,0001.15,0000.93,0000.37,-000.02,0000.19,0000.35,0000.33,0000.32,18.5,25.0,04.3,02.9,0668.1,31.0
2021-08-29T04:57:00Z,00000200,40000000,,,,,,,0000.20,0000.16,-000.03,18.5,25.0,04.2,02.8,0668.1,31.0
2021-08-29T04:58:00Z,00000200,60000000,,,,,,,0000.05,0000.36,-000.36,18.2,25.1,04.3,02.8,0667.1,31.0
2021-08-29T04:59:00Z,00000200,20000000,,,,,,,-000.07,-000.22,0000.14,18.2,25.2,04.3,02.8,0667.1,31.0
